Time,TemperatureF,DewpointF,PressureIn,WindDirection,WindDirectionDegrees,WindSpeedMPH,WindSpeedGustMPH,Humidity,HourlyPrecipIn,Conditions,Clouds,dailyrainin,SoftwareType,DateUTC
2013-03-20 00:00:00,49.9,28.0,29.18,NW,315,0.0,2.0,41,0.00,,,0.00,Rainwise IP-100,2013-03-20 04:00:00,
2013-03-20 00:05:00,49.5,26.0,29.18,NW,315,2.0,2.0,39,0.00,,,0.00,Rainwise IP-100,2013-03-20 04:05:00,
2013-03-20 00:06:00,49.5,31.0,29.18,NW,315,0.0,2.0,46,0.00,,,0.00,Rainwise IP-100,2013-03-20 04:06:00,
2013-03-20 00:11:00,48.9,31.0,29.17,NW,315,0.0,0.0,49,0.00,,,0.00,Rainwise IP-100,2013-03-20 04:11:00,
2013-03-20 00:16:00,48.2,32.0,29.17,NW,315,0.0,0.0,53,0.00,,,0.00,Rainwise IP-100,2013-03-20 04:16:00,
2013-03-20 00:21:00,47.4,35.0,29.17,NW,315,0.0,0.0,61,0.00,,,0.00,Rainwise IP-100,2013-03-20 04:21:00,
2013-03-20 00:26:00,46.7,33.0,29.17,NW,315,0.0,0.0,60,0.00,,,0.00,Rainwise IP-100,2013-03-20 04:26:00,
2013-03-20 00:31:00,45.9,33.0,29.17,NW,315,0.0,0.0,62,0.00,,,0.00,Rainwise IP-100,2013-03-20 04:31:00,
2013-03-20 00:36:00,45.4,32.0,29.17,NW,315,0.0,0.0,61,0.00,,,0.00,Rainwise IP-100,2013-03-20 04:36:00,
2013-03-20 00:41:00,45.3,35.0,29.16,NW,315,0.0,0.0,67,0.00,,,0.00,Rainwise IP-100,2013-03-20 04:41:00,
2013-03-20 00:46:00,45.3,33.0,29.16,NW,315,0.0,0.0,62,0.00,,,0.00,Rainwise IP-100,2013-03-20 04:46:00,
2013-03-20 00:51:00,45.2,35.0,29.16,NW,315,0.0,0.0,68,0.00,,,0.00,Rainwise IP-100,2013-03-20 04:51:00,
2013-03-20 00:56:00,44.8,33.0,29.16,NW,315,0.0,0.0,62,0.00,,,0.00,Rainwise IP-100,2013-03-20 04:56:00,
2013-03-20 01:01:00,44.5,32.0,29.15,NW,315,0.0,0.0,60,0.00,,,0.00,Rainwise IP-100,2013-03-20 05:01:00,
2013-03-20 01:06:00,44.6,29.0,29.15,NW,315,0.0,0.0,53,0.00,,,0.00,Rainwise IP-100,2013-03-20 05:06:00,
2013-03-20 01:11:00,44.7,29.0,29.15,NNW,337,2.0,2.0,53,0.00,,,0.00,Rainwise IP-100,2013-03-20 05:11:00,
2013-03-20 01:16:00,45.4,24.0,29.15,NNE,22,1.0,2.0,43,0.00,,,0.00,Rainwise IP-100,2013-03-20 05:16:00,
2013-03-20 01:21:00,46.1,28.0,29.15,NNE,22,1.0,2.0,48,0.00,,,0.00,Rainwise IP-100,2013-03-20 05:21:00,
2013-03-20 01:26:00,46.3,32.0,29.15,NNE,22,1.0,2.0,57,0.00,,,0.00,Rainwise IP-100,2013-03-20 05:26:00,
2013-03-20 01:31:00,46.0,29.0,29.15,North,360,0.0,2.0,51,0.00,,,0.00,Rainwise IP-100,2013-03-20 05:31:00,
2013-03-20 01:36:00,45.7,31.0,29.15,North,360,0.0,0.0,56,0.00,,,0.00,Rainwise IP-100,2013-03-20 05:36:00,
2013-03-20 01:41:00,45.5,32.0,29.15,North,360,0.0,2.0,58,0.00,,,0.00,Rainwise IP-100,2013-03-20 05:41:00,
2013-03-20 01:46:00,45.3,33.0,29.15,North,360,0.0,1.0,63,0.00,,,0.00,Rainwise IP-100,2013-03-20 05:46:00,
2013-03-20 01:51:00,44.9,35.0,29.15,North,360,0.0,0.0,65,0.00,,,0.00,Rainwise IP-100,2013-03-20 05:51:00,
2013-03-20 01:56:00,44.4,33.0,29.15,North,360,0.0,0.0,66,0.00,,,0.00,Rainwise IP-100,2013-03-20 05:56:00,
2013-03-20 02:01:00,43.9,35.0,29.15,North,360,0.0,0.0,69,0.00,,,0.00,Rainwise IP-100,2013-03-20 06:01:00,
2013-03-20 02:06:00,43.5,36.0,29.15,North,360,0.0,0.0,71,0.00,,,0.00,Rainwise IP-100,2013-03-20 06:06:00,
2013-03-20 02:11:00,42.9,36.0,29.14,North,360,0.0,0.0,74,0.00,,,0.00,Rainwise IP-100,2013-03-20 06:11:00,
2013-03-20 02:16:00,42.4,35.0,29.14,North,360,0.0,0.0,75,0.00,,,0.00,Rainwise IP-100,2013-03-20 06:16:00,
2013-03-20 02:21:00,42.3,36.0,29.13,North,360,0.0,0.0,76,0.00,,,0.00,Rainwise IP-100,2013-03-20 06:21:00,
2013-03-20 02:26:00,42.2,36.0,29.13,North,360,0.0,0.0,77,0.00,,,0.00,Rainwise IP-100,2013-03-20 06:26:00,
2013-03-20 02:31:00,42.3,29.0,29.12,NE,45,2.0,2.0,59,0.00,,,0.00,Rainwise IP-100,2013-03-20 06:31:00,
2013-03-20 02:36:00,42.5,29.0,29.12,North,360,2.0,5.0,57,0.00,,,0.00,Rainwise IP-100,2013-03-20 06:36:00,
2013-03-20 02:41:00,43.0,26.0,29.12,North,360,2.0,2.0,50,0.00,,,0.00,Rainwise IP-100,2013-03-20 06:41:00,
2013-03-20 02:46:00,43.6,23.0,29.13,NNE,22,1.0,2.0,43,0.00,,,0.00,Rainwise IP-100,2013-03-20 06:46:00,
2013-03-20 02:51:00,44.4,23.0,29.13,North,360,4.0,6.0,42,0.00,,,0.00,Rainwise IP-100,2013-03-20 06:51:00,
2013-03-20 02:56:00,45.0,23.0,29.13,North,360,2.0,6.0,41,0.00,,,0.00,Rainwise IP-100,2013-03-20 06:56:00,
2013-03-20 03:01:00,45.4,21.0,29.13,North,360,2.0,6.0,37,0.00,,,0.00,Rainwise IP-100,2013-03-20 07:01:00,
2013-03-20 03:07:00,45.5,21.0,29.13,North,360,4.0,5.0,37,0.00,,,0.00,Rainwise IP-100,2013-03-20 07:07:00,
2013-03-20 03:12:00,45.5,21.0,29.14,North,360,4.0,5.0,36,0.00,,,0.00,Rainwise IP-100,2013-03-20 07:12:00,
2013-03-20 03:17:00,45.6,21.0,29.13,NNE,22,2.0,7.0,34,0.00,,,0.00,Rainwise IP-100,2013-03-20 07:17:00,
2013-03-20 03:22:00,45.6,18.0,29.13,North,360,1.0,5.0,33,0.00,,,0.00,Rainwise IP-100,2013-03-20 07:22:00,
2013-03-20 03:27:00,45.9,18.0,29.14,NNE,22,3.0,7.0,32,0.00,,,0.00,Rainwise IP-100,2013-03-20 07:27:00,
2013-03-20 03:32:00,46.2,18.0,29.14,North,360,7.0,7.0,32,0.00,,,0.00,Rainwise IP-100,2013-03-20 07:32:00,
2013-03-20 03:37:00,46.3,18.0,29.14,NNE,22,2.0,7.0,32,0.00,,,0.00,Rainwise IP-100,2013-03-20 07:37:00,
2013-03-20 03:42:00,46.1,18.0,29.14,North,360,2.0,4.0,32,0.00,,,0.00,Rainwise IP-100,2013-03-20 07:42:00,
2013-03-20 03:47:00,45.9,18.0,29.14,North,360,3.0,4.0,32,0.00,,,0.00,Rainwise IP-100,2013-03-20 07:47:00,
2013-03-20 03:52:00,45.8,18.0,29.14,North,360,2.0,5.0,33,0.00,,,0.00,Rainwise IP-100,2013-03-20 07:52:00,
2013-03-20 03:57:00,45.3,18.0,29.13,NNE,22,2.0,4.0,34,0.00,,,0.00,Rainwise IP-100,2013-03-20 07:57:00,
2013-03-20 04:02:00,44.9,18.0,29.13,North,360,1.0,3.0,33,0.00,,,0.00,Rainwise IP-100,2013-03-20 08:02:00,
2013-03-20 04:07:00,44.8,18.0,29.13,North,360,2.0,3.0,33,0.00,,,0.00,Rainwise IP-100,2013-03-20 08:07:00,
2013-03-20 04:12:00,44.5,21.0,29.13,North,360,0.0,2.0,35,0.00,,,0.00,Rainwise IP-100,2013-03-20 08:12:00,
2013-03-20 04:17:00,44.2,18.0,29.12,North,360,1.0,2.0,35,0.00,,,0.00,Rainwise IP-100,2013-03-20 08:17:00,
2013-03-20 04:22:00,44.2,18.0,29.12,North,360,0.0,2.0,36,0.00,,,0.00,Rainwise IP-100,2013-03-20 08:22:00,
2013-03-20 04:27:00,43.9,23.0,29.12,NNW,337,1.0,2.0,40,0.00,,,0.00,Rainwise IP-100,2013-03-20 08:27:00,
2013-03-20 04:32:00,43.7,23.0,29.12,NW,315,2.0,2.0,40,0.00,,,0.00,Rainwise IP-100,2013-03-20 08:32:00,
2013-03-20 04:37:00,43.6,21.0,29.11,NW,315,2.0,2.0,39,0.00,,,0.00,Rainwise IP-100,2013-03-20 08:37:00,
2013-03-20 04:42:00,43.6,21.0,29.11,NW,315,1.0,2.0,38,0.00,,,0.00,Rainwise IP-100,2013-03-20 08:42:00,
2013-03-20 04:47:00,43.5,23.0,29.11,NW,315,0.0,2.0,41,0.00,,,0.00,Rainwise IP-100,2013-03-20 08:47:00,
2013-03-20 04:52:00,43.1,21.0,29.11,NW,315,0.0,2.0,38,0.00,,,0.00,Rainwise IP-100,2013-03-20 08:52:00,
2013-03-20 04:57:00,42.6,21.0,29.11,NW,315,0.0,0.0,40,0.00,,,0.00,Rainwise IP-100,2013-03-20 08:57:00,
2013-03-20 05:02:00,42.1,23.0,29.11,NW,315,0.0,0.0,45,0.00,,,0.00,Rainwise IP-100,2013-03-20 09:02:00,
2013-03-20 05:07:00,41.8,26.0,29.11,NW,315,0.0,1.0,50,0.00,,,0.00,Rainwise IP-100,2013-03-20 09:07:00,
2013-03-20 05:12:00,41.4,24.0,29.11,NW,315,0.0,0.0,51,0.00,,,0.00,Rainwise IP-100,2013-03-20 09:12:00,
2013-03-20 05:17:00,41.2,28.0,29.11,NW,315,0.0,0.0,58,0.00,,,0.00,Rainwise IP-100,2013-03-20 09:17:00,
2013-03-20 05:22:00,40.9,28.0,29.11,NW,315,0.0,0.0,58,0.00,,,0.00,Rainwise IP-100,2013-03-20 09:22:00,
2013-03-20 05:27:00,40.6,29.0,29.11,NW,315,0.0,0.0,61,0.00,,,0.00,Rainwise IP-100,2013-03-20 09:27:00,
2013-03-20 05:32:00,40.4,28.0,29.11,NW,315,0.0,0.0,61,0.00,,,0.00,Rainwise IP-100,2013-03-20 09:32:00,
2013-03-20 05:37:00,40.2,31.0,29.11,NW,315,0.0,0.0,69,0.00,,,0.00,Rainwise IP-100,2013-03-20 09:37:00,
2013-03-20 05:42:00,39.9,32.0,29.11,NW,315,0.0,0.0,71,0.00,,,0.00,Rainwise IP-100,2013-03-20 09:42:00,
2013-03-20 05:47:00,39.6,31.0,29.10,NW,315,0.0,0.0,66,0.00,,,0.00,Rainwise IP-100,2013-03-20 09:47:00,
2013-03-20 05:52:00,39.5,32.0,29.10,NW,315,0.0,0.0,73,0.00,,,0.00,Rainwise IP-100,2013-03-20 09:52:00,
2013-03-20 05:57:00,39.2,31.0,29.10,NW,315,0.0,0.0,72,0.00,,,0.00,Rainwise IP-100,2013-03-20 09:57:00,
2013-03-20 06:02:00,38.7,31.0,29.10,NW,315,0.0,0.0,71,0.00,,,0.00,Rainwise IP-100,2013-03-20 10:02:00,
2013-03-20 06:07:00,38.3,31.0,29.10,WNW,292,0.0,1.0,73,0.00,,,0.00,Rainwise IP-100,2013-03-20 10:07:00,
2013-03-20 06:12:00,38.0,31.0,29.10,WNW,292,0.0,1.0,74,0.00,,,0.00,Rainwise IP-100,2013-03-20 10:12:00,
2013-03-20 06:17:00,37.7,32.0,29.10,WNW,292,0.0,0.0,79,0.00,,,0.00,Rainwise IP-100,2013-03-20 10:17:00,
2013-03-20 06:22:00,37.5,32.0,29.10,WNW,292,0.0,0.0,77,0.00,,,0.00,Rainwise IP-100,2013-03-20 10:22:00,
2013-03-20 06:27:00,37.4,29.0,29.10,WNW,292,0.0,0.0,71,0.00,,,0.00,Rainwise IP-100,2013-03-20 10:27:00,
2013-03-20 06:32:00,37.2,29.0,29.10,WNW,292,0.0,0.0,71,0.00,,,0.00,Rainwise IP-100,2013-03-20 10:32:00,
2013-03-20 06:37:00,36.9,29.0,29.11,WNW,292,0.0,0.0,74,0.00,,,0.00,Rainwise IP-100,2013-03-20 10:37:00,
2013-03-20 06:42:00,36.9,31.0,29.11,WNW,292,0.0,0.0,77,0.00,,,0.00,Rainwise IP-100,2013-03-20 10:42:00,
2013-03-20 06:47:00,37.3,31.0,29.12,WNW,292,0.0,0.0,75,0.00,,,0.00,Rainwise IP-100,2013-03-20 10:47:00,
2013-03-20 06:52:00,37.5,31.0,29.12,WNW,292,0.0,0.0,75,0.00,,,0.00,Rainwise IP-100,2013-03-20 10:52:00,
2013-03-20 06:57:00,37.5,32.0,29.12,WNW,292,0.0,0.0,77,0.00,,,0.00,Rainwise IP-100,2013-03-20 10:57:00,
2013-03-20 07:02:00,37.5,31.0,29.13,WNW,292,0.0,0.0,74,0.00,,,0.00,Rainwise IP-100,2013-03-20 11:02:00,
2013-03-20 07:07:00,37.7,31.0,29.13,WNW,292,0.0,0.0,75,0.00,,,0.00,Rainwise IP-100,2013-03-20 11:07:00,
2013-03-20 07:12:00,37.9,31.0,29.13,WNW,292,0.0,0.0,74,0.00,,,0.00,Rainwise IP-100,2013-03-20 11:12:00,
2013-03-20 07:17:00,38.0,31.0,29.13,WNW,292,0.0,0.0,75,0.00,,,0.00,Rainwise IP-100,2013-03-20 11:17:00,
2013-03-20 07:22:00,38.1,31.0,29.13,WNW,292,0.0,0.0,72,0.00,,,0.00,Rainwise IP-100,2013-03-20 11:22:00,
2013-03-20 07:27:00,38.2,31.0,29.13,WNW,292,0.0,0.0,74,0.00,,,0.00,Rainwise IP-100,2013-03-20 11:27:00,
2013-03-20 07:32:00,38.1,31.0,29.14,WNW,292,0.0,0.0,75,0.00,,,0.00,Rainwise IP-100,2013-03-20 11:32:00,
2013-03-20 07:37:00,38.0,31.0,29.14,WNW,292,0.0,0.0,76,0.00,,,0.00,Rainwise IP-100,2013-03-20 11:37:00,
2013-03-20 07:42:00,38.1,32.0,29.14,WNW,292,0.0,0.0,78,0.00,,,0.00,Rainwise IP-100,2013-03-20 11:42:00,
2013-03-20 07:47:00,38.2,32.0,29.14,WNW,292,0.0,0.0,78,0.00,,,0.00,Rainwise IP-100,2013-03-20 11:47:00,
2013-03-20 07:52:00,38.3,31.0,29.14,WNW,292,0.0,0.0,75,0.00,,,0.00,Rainwise IP-100,2013-03-20 11:52:00,
2013-03-20 07:57:00,38.5,32.0,29.15,WNW,292,0.0,0.0,74,0.00,,,0.00,Rainwise IP-100,2013-03-20 11:57:00,
2013-03-20 08:02:00,38.8,32.0,29.15,SW,225,2.0,0.0,76,0.00,,,0.00,Rainwise IP-100,2013-03-20 12:02:00,
2013-03-20 08:07:00,39.3,31.0,29.15,South,180,0.0,2.0,69,0.00,,,0.00,Rainwise IP-100,2013-03-20 12:07:00,
2013-03-20 08:12:00,39.7,32.0,29.16,South,180,0.0,1.0,72,0.00,,,0.00,Rainwise IP-100,2013-03-20 12:12:00,
2013-03-20 08:17:00,40.2,32.0,29.17,South,180,0.0,0.0,70,0.00,,,0.00,Rainwise IP-100,2013-03-20 12:17:00,
2013-03-20 08:22:00,40.7,33.0,29.17,South,180,0.0,0.0,72,0.00,,,0.00,Rainwise IP-100,2013-03-20 12:22:00,
2013-03-20 08:27:00,41.1,31.0,29.19,South,180,0.0,0.0,66,0.00,,,0.00,Rainwise IP-100,2013-03-20 12:27:00,
2013-03-20 08:32:00,41.6,32.0,29.20,South,180,0.0,0.0,67,0.00,,,0.00,Rainwise IP-100,2013-03-20 12:32:00,
2013-03-20 08:37:00,42.1,32.0,29.20,South,180,0.0,0.0,68,0.00,,,0.00,Rainwise IP-100,2013-03-20 12:37:00,
2013-03-20 08:42:00,42.5,32.0,29.21,South,180,0.0,0.0,63,0.00,,,0.00,Rainwise IP-100,2013-03-20 12:42:00,
2013-03-20 08:47:00,42.9,31.0,29.21,South,180,0.0,0.0,62,0.00,,,0.00,Rainwise IP-100,2013-03-20 12:47:00,
2013-03-20 08:52:00,43.1,32.0,29.22,South,180,0.0,0.0,63,0.00,,,0.00,Rainwise IP-100,2013-03-20 12:52:00,
2013-03-20 08:57:00,43.4,26.0,29.22,South,180,0.0,2.0,50,0.00,,,0.00,Rainwise IP-100,2013-03-20 12:57:00,
2013-03-20 09:02:00,43.8,26.0,29.23,South,180,0.0,2.0,48,0.00,,,0.00,Rainwise IP-100,2013-03-20 13:02:00,
2013-03-20 09:07:00,44.4,26.0,29.23,SSE,157,0.0,0.0,48,0.00,,,0.00,Rainwise IP-100,2013-03-20 13:07:00,
2013-03-20 09:12:00,44.8,26.0,29.24,ESE,112,0.0,1.0,45,0.00,,,0.00,Rainwise IP-100,2013-03-20 13:12:00,
2013-03-20 09:17:00,45.1,24.0,29.25,ESE,112,0.0,2.0,44,0.00,,,0.00,Rainwise IP-100,2013-03-20 13:17:00,
2013-03-20 09:22:00,45.6,24.0,29.25,ESE,112,0.0,0.0,43,0.00,,,0.00,Rainwise IP-100,2013-03-20 13:22:00,
2013-03-20 09:27:00,46.3,23.0,29.25,ESE,112,0.0,1.0,39,0.00,,,0.00,Rainwise IP-100,2013-03-20 13:27:00,
2013-03-20 09:32:00,46.4,21.0,29.25,NE,45,1.0,5.0,37,0.00,,,0.00,Rainwise IP-100,2013-03-20 13:32:00,
2013-03-20 09:37:00,46.5,23.0,29.25,East,90,1.0,4.0,38,0.00,,,0.00,Rainwise IP-100,2013-03-20 13:37:00,
2013-03-20 09:42:00,47.1,23.0,29.26,NE,45,2.0,5.0,37,0.00,,,0.00,Rainwise IP-100,2013-03-20 13:42:00,
2013-03-20 09:47:00,47.8,24.0,29.27,NNE,22,3.0,4.0,37,0.00,,,0.00,Rainwise IP-100,2013-03-20 13:47:00,
2013-03-20 09:52:00,47.9,23.0,29.27,ENE,67,5.0,9.0,34,0.00,,,0.00,Rainwise IP-100,2013-03-20 13:52:00,
2013-03-20 09:57:00,47.9,23.0,29.27,NNE,22,4.0,9.0,34,0.00,,,0.00,Rainwise IP-100,2013-03-20 13:57:00,
2013-03-20 10:02:00,48.0,23.0,29.27,NE,45,7.0,10.0,34,0.00,,,0.00,Rainwise IP-100,2013-03-20 14:02:00,
2013-03-20 10:07:00,48.2,21.0,29.28,East,90,4.0,8.0,33,0.00,,,0.00,Rainwise IP-100,2013-03-20 14:07:00,
2013-03-20 10:12:00,48.4,18.0,29.28,NE,45,4.0,8.0,28,0.00,,,0.00,Rainwise IP-100,2013-03-20 14:12:00,
2013-03-20 10:17:00,48.7,16.0,29.28,NE,45,6.0,10.0,27,0.00,,,0.00,Rainwise IP-100,2013-03-20 14:17:00,
2013-03-20 10:22:00,48.9,16.0,29.29,NNE,22,4.0,7.0,25,0.00,,,0.00,Rainwise IP-100,2013-03-20 14:22:00,
2013-03-20 10:27:00,50.5,18.0,29.30,NE,45,7.0,7.0,26,0.00,,,0.00,Rainwise IP-100,2013-03-20 14:27:00,
2013-03-20 10:32:00,50.5,16.0,29.30,NNE,22,4.0,8.0,24,0.00,,,0.00,Rainwise IP-100,2013-03-20 14:32:00,
2013-03-20 10:37:00,50.3,16.0,29.30,NE,45,4.0,6.0,24,0.00,,,0.00,Rainwise IP-100,2013-03-20 14:37:00,
2013-03-20 10:42:00,50.2,14.0,29.29,NNW,337,4.0,9.0,22,0.00,,,0.00,Rainwise IP-100,2013-03-20 14:42:00,
2013-03-20 10:47:00,49.9,16.0,29.29,NNE,22,4.0,9.0,24,0.00,,,0.00,Rainwise IP-100,2013-03-20 14:47:00,
2013-03-20 10:52:00,50.0,14.0,29.29,North,360,4.0,9.0,23,0.00,,,0.00,Rainwise IP-100,2013-03-20 14:52:00,
2013-03-20 10:57:00,50.2,16.0,29.29,NE,45,7.0,7.0,24,0.00,,,0.00,Rainwise IP-100,2013-03-20 14:57:00,
2013-03-20 11:02:00,50.2,14.0,29.28,ENE,67,6.0,12.0,23,0.00,,,0.00,Rainwise IP-100,2013-03-20 15:02:00,
2013-03-20 11:07:00,50.3,16.0,29.29,North,360,4.0,9.0,24,0.00,,,0.00,Rainwise IP-100,2013-03-20 15:07:00,
2013-03-20 11:12:00,50.3,16.0,29.29,NW,315,4.0,7.0,24,0.00,,,0.00,Rainwise IP-100,2013-03-20 15:12:00,
2013-03-20 11:17:00,50.5,16.0,29.28,North,360,2.0,7.0,23,0.00,,,0.00,Rainwise IP-100,2013-03-20 15:17:00,
2013-03-20 11:22:00,50.8,16.0,29.28,East,90,5.0,9.0,24,0.00,,,0.00,Rainwise IP-100,2013-03-20 15:22:00,
2013-03-20 11:27:00,50.4,16.0,29.28,NE,45,4.0,7.0,24,0.00,,,0.00,Rainwise IP-100,2013-03-20 15:27:00,
2013-03-20 11:32:00,50.9,16.0,29.28,NE,45,4.0,5.0,24,0.00,,,0.00,Rainwise IP-100,2013-03-20 15:32:00,
2013-03-20 11:37:00,51.2,14.0,29.28,North,360,4.0,9.0,22,0.00,,,0.00,Rainwise IP-100,2013-03-20 15:37:00,
2013-03-20 11:42:00,51.0,14.0,29.28,NNE,22,2.0,9.0,22,0.00,,,0.00,Rainwise IP-100,2013-03-20 15:42:00,
2013-03-20 11:47:00,50.3,16.0,29.28,SE,135,2.0,8.0,24,0.00,,,0.00,Rainwise IP-100,2013-03-20 15:47:00,
2013-03-20 11:52:00,50.5,16.0,29.28,NNE,22,4.0,7.0,24,0.00,,,0.00,Rainwise IP-100,2013-03-20 15:52:00,
2013-03-20 11:57:00,50.7,16.0,29.28,ENE,67,0.0,7.0,23,0.00,,,0.00,Rainwise IP-100,2013-03-20 15:57:00,
2013-03-20 12:03:00,51.3,16.0,29.29,West,270,2.0,3.0,23,0.00,,,0.00,Rainwise IP-100,2013-03-20 16:03:00,
2013-03-20 12:08:00,51.6,16.0,29.29,NNE,22,7.0,7.0,23,0.00,,,0.00,Rainwise IP-100,2013-03-20 16:08:00,
2013-03-20 12:13:00,51.7,16.0,29.29,NNE,22,2.0,9.0,23,0.00,,,0.00,Rainwise IP-100,2013-03-20 16:13:00,
2013-03-20 12:18:00,52.5,16.0,29.29,NE,45,4.0,5.0,22,0.00,,,0.00,Rainwise IP-100,2013-03-20 16:18:00,
2013-03-20 12:23:00,52.2,16.0,29.29,ENE,67,5.0,7.0,23,0.00,,,0.00,Rainwise IP-100,2013-03-20 16:23:00,
2013-03-20 12:28:00,52.5,16.0,29.29,WSW,247,1.0,6.0,23,0.00,,,0.00,Rainwise IP-100,2013-03-20 16:28:00,
2013-03-20 12:33:00,52.7,16.0,29.29,ENE,67,5.0,5.0,22,0.00,,,0.00,Rainwise IP-100,2013-03-20 16:33:00,
2013-03-20 12:38:00,52.3,16.0,29.29,ENE,67,5.0,9.0,22,0.00,,,0.00,Rainwise IP-100,2013-03-20 16:38:00,
2013-03-20 12:43:00,52.9,16.0,29.29,WNW,292,3.0,6.0,22,0.00,,,0.00,Rainwise IP-100,2013-03-20 16:43:00,
2013-03-20 12:48:00,52.9,16.0,29.29,WSW,247,1.0,5.0,22,0.00,,,0.00,Rainwise IP-100,2013-03-20 16:48:00,
2013-03-20 12:53:00,54.2,16.0,29.29,SE,135,0.0,2.0,22,0.00,,,0.00,Rainwise IP-100,2013-03-20 16:53:00,
2013-03-20 12:58:00,55.4,16.0,29.29,ESE,112,3.0,4.0,21,0.00,,,0.00,Rainwise IP-100,2013-03-20 16:58:00,
2013-03-20 13:03:00,53.8,16.0,29.29,SE,135,3.0,7.0,21,0.00,,,0.00,Rainwise IP-100,2013-03-20 17:03:00,
2013-03-20 13:08:00,53.6,16.0,29.29,East,90,3.0,5.0,21,0.00,,,0.00,Rainwise IP-100,2013-03-20 17:08:00,
2013-03-20 13:13:00,53.8,16.0,29.28,NE,45,1.0,7.0,21,0.00,,,0.00,Rainwise IP-100,2013-03-20 17:13:00,
2013-03-20 13:18:00,53.9,16.0,29.27,West,270,2.0,5.0,21,0.00,,,0.00,Rainwise IP-100,2013-03-20 17:18:00,
2013-03-20 13:23:00,53.7,16.0,29.27,North,360,4.0,4.0,21,0.00,,,0.00,Rainwise IP-100,2013-03-20 17:23:00,
2013-03-20 13:28:00,53.7,16.0,29.27,East,90,1.0,5.0,21,0.00,,,0.00,Rainwise IP-100,2013-03-20 17:28:00,
2013-03-20 13:33:00,54.7,16.0,29.26,North,360,1.0,5.0,20,0.00,,,0.00,Rainwise IP-100,2013-03-20 17:33:00,
2013-03-20 13:38:00,55.4,16.0,29.26,North,360,1.0,6.0,20,0.00,,,0.00,Rainwise IP-100,2013-03-20 17:38:00,
2013-03-20 13:43:00,55.9,16.0,29.26,West,270,3.0,3.0,20,0.00,,,0.00,Rainwise IP-100,2013-03-20 17:43:00,
2013-03-20 13:48:00,54.5,16.0,29.26,WSW,247,4.0,4.0,21,0.00,,,0.00,Rainwise IP-100,2013-03-20 17:48:00,
2013-03-20 13:53:00,53.9,16.0,29.25,WNW,292,1.0,4.0,21,0.00,,,0.00,Rainwise IP-100,2013-03-20 17:53:00,
2013-03-20 13:58:00,54.1,16.0,29.25,WSW,247,3.0,8.0,21,0.00,,,0.00,Rainwise IP-100,2013-03-20 17:58:00,
2013-03-20 14:03:00,53.6,16.0,29.24,SW,225,3.0,6.0,22,0.00,,,0.00,Rainwise IP-100,2013-03-20 18:03:00,
2013-03-20 14:08:00,53.7,16.0,29.23,WSW,247,5.0,7.0,22,0.00,,,0.00,Rainwise IP-100,2013-03-20 18:08:00,
2013-03-20 14:13:00,53.9,16.0,29.23,WSW,247,2.0,6.0,21,0.00,,,0.00,Rainwise IP-100,2013-03-20 18:13:00,
2013-03-20 14:18:00,54.4,16.0,29.23,WNW,292,2.0,6.0,22,0.00,,,0.00,Rainwise IP-100,2013-03-20 18:18:00,
2013-03-20 14:23:00,54.9,16.0,29.23,NW,315,1.0,7.0,21,0.00,,,0.00,Rainwise IP-100,2013-03-20 18:23:00,
2013-03-20 14:28:00,56.0,16.0,29.23,SW,225,1.0,3.0,21,0.00,,,0.00,Rainwise IP-100,2013-03-20 18:28:00,
2013-03-20 14:33:00,56.2,16.0,29.23,WNW,292,1.0,6.0,21,0.00,,,0.00,Rainwise IP-100,2013-03-20 18:33:00,
2013-03-20 14:38:00,55.9,16.0,29.23,WSW,247,4.0,5.0,21,0.00,,,0.00,Rainwise IP-100,2013-03-20 18:38:00,
2013-03-20 14:43:00,55.8,16.0,29.23,North,360,4.0,6.0,21,0.00,,,0.00,Rainwise IP-100,2013-03-20 18:43:00,
2013-03-20 14:48:00,56.4,16.0,29.22,NE,45,3.0,4.0,20,0.00,,,0.00,Rainwise IP-100,2013-03-20 18:48:00,
2013-03-20 14:53:00,55.7,16.0,29.22,North,360,4.0,6.0,21,0.00,,,0.00,Rainwise IP-100,2013-03-20 18:53:00,
2013-03-20 14:58:00,56.8,16.0,29.21,NE,45,2.0,4.0,20,0.00,,,0.00,Rainwise IP-100,2013-03-20 18:58:00,
2013-03-20 15:03:00,57.7,18.0,29.21,SW,225,2.0,6.0,21,0.00,,,0.00,Rainwise IP-100,2013-03-20 19:03:00,
2013-03-20 15:08:00,56.4,18.0,29.20,SW,225,5.0,8.0,22,0.00,,,0.00,Rainwise IP-100,2013-03-20 19:08:00,
2013-03-20 15:13:00,56.1,18.0,29.19,WSW,247,2.0,12.0,22,0.00,,,0.00,Rainwise IP-100,2013-03-20 19:13:00,
2013-03-20 15:18:00,55.6,18.0,29.19,WSW,247,3.0,7.0,22,0.00,,,0.00,Rainwise IP-100,2013-03-20 19:18:00,
2013-03-20 15:23:00,55.6,18.0,29.18,West,270,3.0,6.0,22,0.00,,,0.00,Rainwise IP-100,2013-03-20 19:23:00,
2013-03-20 15:28:00,55.5,18.0,29.17,SW,225,1.0,6.0,22,0.00,,,0.00,Rainwise IP-100,2013-03-20 19:28:00,
2013-03-20 15:33:00,55.8,18.0,29.17,WSW,247,2.0,7.0,22,0.00,,,0.00,Rainwise IP-100,2013-03-20 19:33:00,
2013-03-20 15:38:00,55.7,18.0,29.16,West,270,6.0,10.0,22,0.00,,,0.00,Rainwise IP-100,2013-03-20 19:38:00,
2013-03-20 15:43:00,56.0,18.0,29.15,WNW,292,2.0,9.0,23,0.00,,,0.00,Rainwise IP-100,2013-03-20 19:43:00,
2013-03-20 15:48:00,55.9,18.0,29.15,WNW,292,7.0,7.0,23,0.00,,,0.00,Rainwise IP-100,2013-03-20 19:48:00,
2013-03-20 15:53:00,55.7,18.0,29.14,East,90,1.0,7.0,23,0.00,,,0.00,Rainwise IP-100,2013-03-20 19:53:00,
2013-03-20 15:58:00,56.1,18.0,29.14,WSW,247,2.0,7.0,23,0.00,,,0.00,Rainwise IP-100,2013-03-20 19:58:00,
2013-03-20 16:03:00,56.4,21.0,29.13,SW,225,5.0,8.0,23,0.00,,,0.00,Rainwise IP-100,2013-03-20 20:03:00,
2013-03-20 16:08:00,55.9,18.0,29.13,SW,225,5.0,9.0,23,0.00,,,0.00,Rainwise IP-100,2013-03-20 20:08:00,
2013-03-20 16:13:00,55.9,18.0,29.13,West,270,3.0,7.0,23,0.00,,,0.00,Rainwise IP-100,2013-03-20 20:13:00,
2013-03-20 16:18:00,56.4,21.0,29.13,South,180,2.0,5.0,23,0.00,,,0.00,Rainwise IP-100,2013-03-20 20:18:00,
2013-03-20 16:23:00,56.8,21.0,29.13,SW,225,6.0,10.0,23,0.00,,,0.00,Rainwise IP-100,2013-03-20 20:23:00,
2013-03-20 16:28:00,56.4,21.0,29.12,West,270,3.0,12.0,24,0.00,,,0.00,Rainwise IP-100,2013-03-20 20:28:00,
2013-03-20 16:33:00,56.1,21.0,29.12,SW,225,5.0,11.0,24,0.00,,,0.00,Rainwise IP-100,2013-03-20 20:33:00,
2013-03-20 16:38:00,56.3,21.0,29.11,SSW,202,1.0,7.0,24,0.00,,,0.00,Rainwise IP-100,2013-03-20 20:38:00,
2013-03-20 16:43:00,56.5,21.0,29.10,West,270,4.0,7.0,24,0.00,,,0.00,Rainwise IP-100,2013-03-20 20:43:00,
2013-03-20 16:48:00,56.6,21.0,29.11,WSW,247,2.0,7.0,24,0.00,,,0.00,Rainwise IP-100,2013-03-20 20:48:00,
2013-03-20 16:53:00,56.8,21.0,29.11,WNW,292,4.0,6.0,24,0.00,,,0.00,Rainwise IP-100,2013-03-20 20:53:00,
2013-03-20 16:58:00,56.8,23.0,29.10,West,270,6.0,7.0,25,0.00,,,0.00,Rainwise IP-100,2013-03-20 20:58:00,
2013-03-20 17:03:00,56.6,21.0,29.11,SSE,157,2.0,9.0,24,0.00,,,0.00,Rainwise IP-100,2013-03-20 21:03:00,
2013-03-20 17:08:00,56.5,21.0,29.10,WSW,247,2.0,6.0,24,0.00,,,0.00,Rainwise IP-100,2013-03-20 21:08:00,
2013-03-20 17:13:00,56.6,23.0,29.09,WSW,247,5.0,7.0,25,0.00,,,0.00,Rainwise IP-100,2013-03-20 21:13:00,
2013-03-20 17:18:00,56.6,23.0,29.10,SW,225,5.0,7.0,25,0.00,,,0.00,Rainwise IP-100,2013-03-20 21:18:00,
2013-03-20 17:23:00,56.5,23.0,29.10,SW,225,1.0,7.0,25,0.00,,,0.00,Rainwise IP-100,2013-03-20 21:23:00,
2013-03-20 17:28:00,56.7,23.0,29.10,South,180,2.0,11.0,25,0.00,,,0.00,Rainwise IP-100,2013-03-20 21:28:00,
2013-03-20 17:33:00,56.4,23.0,29.10,SW,225,8.0,9.0,25,0.00,,,0.00,Rainwise IP-100,2013-03-20 21:33:00,
2013-03-20 17:38:00,56.6,23.0,29.10,West,270,0.0,10.0,25,0.00,,,0.00,Rainwise IP-100,2013-03-20 21:38:00,
2013-03-20 17:43:00,57.1,23.0,29.10,WSW,247,2.0,6.0,25,0.00,,,0.00,Rainwise IP-100,2013-03-20 21:43:00,
2013-03-20 17:48:00,57.1,23.0,29.10,WSW,247,3.0,7.0,25,0.00,,,0.00,Rainwise IP-100,2013-03-20 21:48:00,
2013-03-20 17:53:00,57.0,23.0,29.10,SW,225,2.0,8.0,25,0.00,,,0.00,Rainwise IP-100,2013-03-20 21:53:00,
2013-03-20 17:58:00,57.3,23.0,29.10,WSW,247,5.0,11.0,25,0.00,,,0.00,Rainwise IP-100,2013-03-20 21:58:00,
2013-03-20 18:03:00,56.6,21.0,29.10,SW,225,6.0,11.0,24,0.00,,,0.00,Rainwise IP-100,2013-03-20 22:03:00,
2013-03-20 18:08:00,56.5,21.0,29.10,SW,225,7.0,10.0,24,0.00,,,0.00,Rainwise IP-100,2013-03-20 22:08:00,
2013-03-20 18:13:00,56.7,23.0,29.09,SW,225,3.0,10.0,25,0.00,,,0.00,Rainwise IP-100,2013-03-20 22:13:00,
2013-03-20 18:18:00,56.9,23.0,29.09,WSW,247,3.0,11.0,25,0.00,,,0.00,Rainwise IP-100,2013-03-20 22:18:00,
2013-03-20 18:23:00,56.7,23.0,29.09,SW,225,9.0,13.0,25,0.00,,,0.00,Rainwise IP-100,2013-03-20 22:23:00,
2013-03-20 18:28:00,56.6,23.0,29.09,SW,225,9.0,12.0,25,0.00,,,0.00,Rainwise IP-100,2013-03-20 22:28:00,
2013-03-20 18:33:00,56.8,23.0,29.08,WSW,247,9.0,11.0,26,0.00,,,0.00,Rainwise IP-100,2013-03-20 22:33:00,
2013-03-20 18:38:00,56.7,23.0,29.08,WSW,247,6.0,11.0,25,0.00,,,0.00,Rainwise IP-100,2013-03-20 22:38:00,
2013-03-20 18:43:00,56.6,23.0,29.07,West,270,6.0,11.0,26,0.00,,,0.00,Rainwise IP-100,2013-03-20 22:43:00,
2013-03-20 18:48:00,56.5,23.0,29.07,WNW,292,4.0,11.0,26,0.00,,,0.00,Rainwise IP-100,2013-03-20 22:48:00,
2013-03-20 18:53:00,56.7,23.0,29.07,SW,225,4.0,6.0,26,0.00,,,0.00,Rainwise IP-100,2013-03-20 22:53:00,
2013-03-20 18:58:00,56.4,23.0,29.07,West,270,2.0,9.0,26,0.00,,,0.00,Rainwise IP-100,2013-03-20 22:58:00,
2013-03-20 19:03:00,56.2,23.0,29.07,WSW,247,3.0,6.0,26,0.00,,,0.00,Rainwise IP-100,2013-03-20 23:03:00,
2013-03-20 19:08:00,56.2,23.0,29.07,WSW,247,2.0,6.0,26,0.00,,,0.00,Rainwise IP-100,2013-03-20 23:08:00,
2013-03-20 19:13:00,56.0,23.0,29.06,WSW,247,1.0,4.0,26,0.00,,,0.00,Rainwise IP-100,2013-03-20 23:13:00,
2013-03-20 19:18:00,55.7,23.0,29.06,WNW,292,2.0,7.0,27,0.00,,,0.00,Rainwise IP-100,2013-03-20 23:18:00,
2013-03-20 19:23:00,55.3,23.0,29.05,West,270,2.0,7.0,27,0.00,,,0.00,Rainwise IP-100,2013-03-20 23:23:00,
2013-03-20 19:28:00,54.9,23.0,29.05,WSW,247,2.0,5.0,28,0.00,,,0.00,Rainwise IP-100,2013-03-20 23:28:00,
2013-03-20 19:33:00,54.6,23.0,29.04,SW,225,2.0,3.0,29,0.00,,,0.00,Rainwise IP-100,2013-03-20 23:33:00,
2013-03-20 19:38:00,54.1,24.0,29.03,SW,225,2.0,3.0,30,0.00,,,0.00,Rainwise IP-100,2013-03-20 23:38:00,
2013-03-20 19:43:00,53.8,24.0,29.03,SW,225,1.0,3.0,30,0.00,,,0.00,Rainwise IP-100,2013-03-20 23:43:00,
2013-03-20 19:48:00,53.4,23.0,29.02,SW,225,1.0,3.0,30,0.00,,,0.00,Rainwise IP-100,2013-03-20 23:48:00,
2013-03-20 19:53:00,53.1,23.0,29.02,SSW,202,2.0,5.0,31,0.00,,,0.00,Rainwise IP-100,2013-03-20 23:53:00,
2013-03-20 19:58:00,52.9,24.0,29.01,SW,225,2.0,4.0,32,0.00,,,0.00,Rainwise IP-100,2013-03-20 23:58:00,
2013-03-20 20:03:00,52.8,24.0,29.01,SSW,202,1.0,3.0,32,0.00,,,0.00,Rainwise IP-100,2013-03-21 00:03:00,
2013-03-20 20:08:00,52.3,24.0,29.00,SSW,202,1.0,2.0,33,0.00,,,0.00,Rainwise IP-100,2013-03-21 00:08:00,
2013-03-20 20:13:00,51.9,24.0,29.00,South,180,2.0,3.0,33,0.00,,,0.00,Rainwise IP-100,2013-03-21 00:13:00,
2013-03-20 20:18:00,51.7,24.0,28.99,South,180,2.0,2.0,34,0.00,,,0.00,Rainwise IP-100,2013-03-21 00:18:00,
2013-03-20 20:23:00,51.4,24.0,28.99,South,180,2.0,2.0,35,0.00,,,0.00,Rainwise IP-100,2013-03-21 00:23:00,
2013-03-20 20:28:00,50.9,26.0,28.98,South,180,0.0,2.0,37,0.00,,,0.00,Rainwise IP-100,2013-03-21 00:28:00,
2013-03-20 20:33:00,50.1,26.0,28.98,South,180,0.0,2.0,38,0.00,,,0.00,Rainwise IP-100,2013-03-21 00:33:00,
2013-03-20 20:38:00,49.1,26.0,28.97,South,180,0.0,1.0,41,0.00,,,0.00,Rainwise IP-100,2013-03-21 00:38:00,
2013-03-20 20:43:00,48.2,28.0,28.97,South,180,0.0,1.0,43,0.00,,,0.00,Rainwise IP-100,2013-03-21 00:43:00,
2013-03-20 20:48:00,47.3,28.0,28.96,South,180,0.0,0.0,44,0.00,,,0.00,Rainwise IP-100,2013-03-21 00:48:00,
2013-03-20 20:53:00,46.6,28.0,28.95,South,180,0.0,0.0,47,0.00,,,0.00,Rainwise IP-100,2013-03-21 00:53:00,
2013-03-20 20:58:00,45.9,29.0,28.95,South,180,0.0,1.0,51,0.00,,,0.00,Rainwise IP-100,2013-03-21 00:58:00,
2013-03-20 21:03:00,45.4,28.0,28.94,South,180,0.0,0.0,51,0.00,,,0.00,Rainwise IP-100,2013-03-21 01:03:00,
2013-03-20 21:08:00,44.9,31.0,28.93,South,180,0.0,0.0,57,0.00,,,0.00,Rainwise IP-100,2013-03-21 01:08:00,
2013-03-20 21:13:00,44.3,29.0,28.93,South,180,0.0,0.0,56,0.00,,,0.00,Rainwise IP-100,2013-03-21 01:13:00,
2013-03-20 21:18:00,43.9,31.0,28.92,South,180,0.0,1.0,59,0.00,,,0.00,Rainwise IP-100,2013-03-21 01:18:00,
2013-03-20 21:23:00,43.5,31.0,28.92,South,180,2.0,2.0,59,0.00,,,0.00,Rainwise IP-100,2013-03-21 01:23:00,
2013-03-20 21:28:00,43.6,31.0,28.92,South,180,0.0,2.0,57,0.00,,,0.00,Rainwise IP-100,2013-03-21 01:28:00,
2013-03-20 21:33:00,43.7,29.0,28.92,South,180,0.0,2.0,56,0.00,,,0.00,Rainwise IP-100,2013-03-21 01:33:00,
2013-03-20 21:38:00,43.5,31.0,28.91,South,180,2.0,2.0,57,0.00,,,0.00,Rainwise IP-100,2013-03-21 01:38:00,
2013-03-20 21:43:00,43.4,29.0,28.91,South,180,0.0,2.0,57,0.00,,,0.00,Rainwise IP-100,2013-03-21 01:43:00,
2013-03-20 21:48:00,43.2,32.0,28.91,South,180,1.0,2.0,66,0.00,,,0.00,Rainwise IP-100,2013-03-21 01:48:00,
2013-03-20 21:53:00,42.9,31.0,28.90,South,180,1.0,2.0,61,0.00,,,0.00,Rainwise IP-100,2013-03-21 01:53:00,
2013-03-20 21:58:00,43.6,31.0,28.90,SSE,157,2.0,3.0,57,0.00,,,0.00,Rainwise IP-100,2013-03-21 01:58:00,
2013-03-20 22:03:00,45.2,29.0,28.90,SE,135,2.0,5.0,52,0.00,,,0.00,Rainwise IP-100,2013-03-21 02:03:00,
2013-03-20 22:08:00,45.2,29.0,28.90,SSE,157,2.0,5.0,53,0.00,,,0.00,Rainwise IP-100,2013-03-21 02:08:00,
2013-03-20 22:13:00,44.9,29.0,28.90,SSE,157,2.0,2.0,54,0.00,,,0.00,Rainwise IP-100,2013-03-21 02:13:00,
2013-03-20 22:18:00,44.4,31.0,28.90,South,180,0.0,2.0,57,0.00,,,0.00,Rainwise IP-100,2013-03-21 02:18:00,
2013-03-20 22:23:00,43.9,29.0,28.90,SSE,157,2.0,4.0,55,0.00,,,0.00,Rainwise IP-100,2013-03-21 02:23:00,
2013-03-20 22:29:00,43.8,31.0,28.90,SSE,157,0.0,2.0,59,0.00,,,0.00,Rainwise IP-100,2013-03-21 02:29:00,
2013-03-20 22:34:00,43.3,31.0,28.89,SSE,157,0.0,1.0,62,0.00,,,0.00,Rainwise IP-100,2013-03-21 02:34:00,
2013-03-20 22:39:00,42.8,31.0,28.89,SSE,157,0.0,1.0,60,0.00,,,0.00,Rainwise IP-100,2013-03-21 02:39:00,
2013-03-20 22:44:00,42.7,31.0,28.89,South,180,0.0,2.0,62,0.00,,,0.00,Rainwise IP-100,2013-03-21 02:44:00,
2013-03-20 22:49:00,42.8,31.0,28.89,South,180,2.0,2.0,59,0.00,,,0.00,Rainwise IP-100,2013-03-21 02:49:00,
2013-03-20 22:54:00,43.4,28.0,28.89,SW,225,2.0,4.0,55,0.00,,,0.00,Rainwise IP-100,2013-03-21 02:54:00,
2013-03-20 22:59:00,44.5,28.0,28.89,SW,225,2.0,7.0,51,0.00,,,0.00,Rainwise IP-100,2013-03-21 02:59:00,
2013-03-20 23:04:00,44.8,28.0,28.89,West,270,2.0,6.0,51,0.00,,,0.00,Rainwise IP-100,2013-03-21 03:04:00,
2013-03-20 23:09:00,45.2,28.0,28.89,SSW,202,3.0,6.0,50,0.00,,,0.00,Rainwise IP-100,2013-03-21 03:09:00,
2013-03-20 23:14:00,45.4,28.0,28.89,SW,225,8.0,8.0,49,0.00,,,0.00,Rainwise IP-100,2013-03-21 03:14:00,
2013-03-20 23:19:00,45.6,29.0,28.89,SW,225,3.0,9.0,50,0.00,,,0.00,Rainwise IP-100,2013-03-21 03:19:00,
2013-03-20 23:24:00,45.6,29.0,28.90,WSW,247,4.0,7.0,50,0.00,,,0.00,Rainwise IP-100,2013-03-21 03:24:00,
2013-03-20 23:29:00,45.5,29.0,28.90,WNW,292,4.0,6.0,50,0.00,,,0.00,Rainwise IP-100,2013-03-21 03:29:00,
2013-03-20 23:34:00,45.3,28.0,28.90,SW,225,3.0,5.0,51,0.00,,,0.00,Rainwise IP-100,2013-03-21 03:34:00,
2013-03-20 23:39:00,45.2,29.0,28.90,West,270,2.0,4.0,52,0.00,,,0.00,Rainwise IP-100,2013-03-21 03:39:00,
2013-03-20 23:44:00,45.1,28.0,28.90,WSW,247,2.0,6.0,50,0.00,,,0.00,Rainwise IP-100,2013-03-21 03:44:00,
2013-03-20 23:49:00,45.0,28.0,28.90,West,270,2.0,5.0,51,0.00,,,0.00,Rainwise IP-100,2013-03-21 03:49:00,
2013-03-20 23:54:00,44.9,28.0,28.90,WSW,247,2.0,5.0,51,0.00,,,0.00,Rainwise IP-100,2013-03-21 03:54:00,
2013-03-20 23:59:00,44.9,28.0,28.90,West,270,2.0,6.0,50,0.00,,,0.00,Rainwise IP-100,2013-03-21 03:59:00,